This is the latest recevied weather packets stored in our database for station/object KB1JL-13. If no packets are shown the sender has not sent any weather packets the latest 10 day(s).
| Time | Temp. | Humidity | Pressure | Rain* | Wind** | Luminosity | Snow |
|---|---|---|---|---|---|---|---|
| 1777556362 | 8.89° C | 99% | 1019.2 hPa | 0 mm | - | 44 W/m² | - |
| 1777556057 | 8.89° C | 99% | 1019.2 hPa | 0 mm | - | 38 W/m² | - |
| 1777555757 | 8.33° C | 99% | 1019.2 hPa | 0 mm | - | 45 W/m² | - |
| 1777555454 | 8.89° C | 99% | 1019.2 hPa | 0 mm | - | 40 W/m² | - |
| 1777555149 | 8.89° C | 99% | 1019.2 hPa | 0 mm | - | 33 W/m² | - |
| 1777554847 | 8.89° C | 99% | 1019.2 hPa | 0 mm | - | 58 W/m² | - |
| 1777554544 | 8.89° C | 99% | 1018.9 hPa | 0 mm | - | 72 W/m² | - |
| 1777554241 | 8.89° C | 99% | 1019.2 hPa | 0 mm | - | 80 W/m² | - |
| 1777553938 | 8.33° C | 99% | 1018.9 hPa | 0 mm | - | 58 W/m² | - |
| 1777553634 | 8.33° C | 99% | 1019.2 hPa | 0 mm | - | 61 W/m² | - |
| 1777553330 | 8.33° C | 99% | 1019.2 hPa | 0 mm | - | 49 W/m² | - |
| 1777553026 | 8.33° C | 99% | 1019.2 hPa | 0 mm | - | 39 W/m² | - |
| 1777552721 | 8.33° C | 99% | 1019.2 hPa | 0 mm | - | 38 W/m² | - |
| 1777552418 | 8.33° C | 99% | 1019.2 hPa | 0 mm | - | 40 W/m² | - |
| 1777552114 | 8.33° C | 99% | 1019.2 hPa | 0 mm | - | 46 W/m² | - |
| 1777551812 | 8.33° C | 99% | 1019.5 hPa | 0 mm | - | 37 W/m² | - |
| 1777551510 | 8.33° C | 99% | 1019.5 hPa | 0 mm | - | 32 W/m² | - |
| 1777551206 | 8.33° C | 99% | 1019.5 hPa | 0 mm | - | 35 W/m² | - |
| 1777550903 | 8.33° C | 99% | 1019.2 hPa | 0 mm | - | 66 W/m² | - |
| 1777550599 | 8.33° C | 99% | 1019.2 hPa | 1.27 mm | - | 52 W/m² | - |
| 1777550295 | 8.33° C | 99% | 1019.5 hPa | 1.27 mm | - | 42 W/m² | - |
| 1777549992 | 8.33° C | 99% | 1019.2 hPa | 0 mm | - | 26 W/m² | - |
| 1777549689 | 8.33° C | 99% | 1019.9 hPa | 0 mm | - | 34 W/m² | - |
| 1777549383 | 8.33° C | 99% | 1019.9 hPa | 0 mm | - | 32 W/m² | - |
| 1777549081 | 8.33° C | 99% | 1019.5 hPa | 1.78 mm | - | 26 W/m² | - |
* Rain latest hour (hover to see other rain measurements)
** Current wind speed in m/s (hover to see current wind gust speed)